Regional Weather Roundup
Issued by NWS

Home | Current Version | Previous Version | Graphics & Text | Print | Product List | Glossary On
Versions: 1 2 3 4 5 6 7 8 9 10 11 12 13 14 15 16 17 18 19 20 21 22 23 24 25 26 27 28 29 30 31 32 33 34 35 36 37 38 39 40 41 42 43 44 45 46 47 48 49 50
000
ASUS43 KIND 290409
RWRIN

WEATHER ROUNDUP FOR INDIANA
NATIONAL WEATHER SERVICE INDIANAPOLIS IN
1200 AM EDT WED JUL 29 2015

NOTE: "FAIR" INDICATES FEW OR NO CLOUDS BELOW 12,000 FEET WITH NO
SIGNIFICANT WEATHER AND/OR OBSTRUCTIONS TO VISIBILITY.

* - STATION DOES NOT REPORT WEATHER SUCH AS PRECIPITATION OR FOG.

+ - STATION NOT QUALITY CONTROLLED BY THE NATIONAL WEATHER SERVICE.
    USE DATA WITH CAUTION...ESPECIALLY DEWPOINT AND RELATIVE
    HUMIDITY OBSERVATIONS.

INZ001>003-010>013-019-020-290500-
NORTHWEST INDIANA

CITY           SKY/WX    TMP DP  RH WIND       PRES   REMARKS
GARY /AIRPORT/ CLEAR     78  74  87 CALM      29.95S
KNOX *+        CLEAR     73  73 100 SE3       29.96F
LA PORTE +     CLEAR     76  76 100 CALM      29.98S
MICHIGAN CITY+ CLEAR     77  73  88 CALM      29.97S
MONTICELLO +   PTCLDY    76  76 100 CALM      29.96F
RENSSELAER +   PTCLDY    77  75  94 CALM      29.97S
VALPARAISO     CLEAR     79  72  79 S6        29.97F

$$

LMZ046-743>745-290500-
SOUTHERN LAKE MICHIGAN

STATION/POSITION TIME  TEMP    WIND        PRES    WAVE
                       AIR SEA DIR/SP/G            HT
                 (UTC) (F)     (DEG/KT/KT) (MB)    (FT)
BURNS HARBOR     0300   83     180/  3/  5 1014.9R
MICHIGAN CITY    0300   82     130/  6/  7   N/A
5NW MICH CITY    0400   78 76  170/  6/  6   N/A     0

$$

INZ004-005-014>016-021>024-290500-
NORTH CENTRAL INDIANA

CITY           SKY/WX    TMP DP  RH WIND       PRES   REMARKS
GOSHEN         PTCLDY    75  70  84 CALM      29.99S
LOGANSPORT +   CLEAR     73  70  88 CALM      29.98F
PERU/GRISSOM   PTCLDY    77  73  86 SE5       29.97F
ROCHESTER +    CLEAR     77  77 100 CALM      29.98F
SOUTH BEND     PTCLDY    81  71  71 SE5       29.98F
WARSAW +       CLEAR     72  72 100 CALM      29.99F

$$

INZ006>009-017-018-025>027-290500-
NORTHEAST INDIANA

CITY           SKY/WX    TMP DP  RH WIND       PRES   REMARKS
ANGOLA *+      CLEAR     75  66  73 SE5       30.01F
AUBURN +       PTCLDY    77  64  65 E6        30.01F
FORT WAYNE     MOCLDY    78  72  81 SE5       30.00F
HUNTINGTON +   CLEAR     75  73  91 CALM      29.99F

$$

INZ028-029-035-036-043>045-051>053-290500-
WEST CENTRAL INDIANA

CITY           SKY/WX    TMP DP  RH WIND       PRES   REMARKS
CRAWFORDSVL +  PTCLDY    73  73 100 CALM        N/A
GREENCASTLE +  PTCLDY    75  72  88 CALM      29.99F FOG
LAFAYETTE      MOCLDY    77  74  90 CALM      29.95F
TERRE HAUTE    PTCLDY    78  76  93 CALM      29.96F

$$

INZ030>032-037>040-046>048-054>057-064-065-290500-
CENTRAL INDIANA

CITY           SKY/WX    TMP DP  RH WIND       PRES   REMARKS
FISHERS *+     PTCLDY    75  75 100 CALM      29.99F
FRANKFORT +    PTCLDY   N/A N/A N/A CALM      30.00F HAZE
GREENWOOD *+   CLEAR     75  72  88 CALM      30.00S
INDIANAPOLIS   MOCLDY    81  72  74 S3        29.97F
-EAGLE CREEK   CLEAR     78  74  87 CALM      29.98F
KOKOMO *+      PTCLDY    75  72  88 CALM      29.98F
MARION +       PTCLDY    75  73  93 CALM      29.99F
MT COMFORT *+  PTCLDY    75 N/A N/A CALM      30.00F
SHELBYVILLE    CLEAR     77  74  90 E3        29.98F FOG
ZIONSVILLE +   CLEAR     75  72  89 CALM      29.99F FOG

$$

INZ033-034-041-042-049-050-058-059-290500-
EAST CENTRAL INDIANA

CITY           SKY/WX    TMP DP  RH WIND       PRES   REMARKS
MUNCIE         PTCLDY    75  72  90 CALM      30.00S

$$

INZ060-061-067>069-081>083-085>088-290500-
SOUTHWEST INDIANA

CITY           SKY/WX    TMP DP  RH WIND       PRES   REMARKS
EVANSVILLE     CLOUDY    76  73  91 SW5       29.98F
HUNTINGBURG *+ MOCLDY    77  72  83 S6        29.99F
WASHINGTON +   MOCLDY    75  72  88 CALM      29.96F

$$

INZ062-063-066-070>080-084-089>092-290500-
SOUTH CENTRAL AND SOUTHEAST INDIANA

CITY           SKY/WX    TMP DP  RH WIND       PRES   REMARKS
BLOOMINGTON    PTCLDY    76  74  93 CALM      29.99F
MADISON *+     PTCLDY    75  73  94 CALM      30.02S
NORTH VERNON + PTCLDY    77  77 100 CALM      30.00S FOG
SEYMOUR +      CLEAR     77  75  94 CALM      29.98S FOG

$$




USA.gov is the U.S. government's official web portal to all federal, state and local government web resources and services.